| time (UTC) | temp C | wind direction | speed KPH | gust KPH | rain 1hr cm | rain 24hr cm | rain mn cm | humidity % | barometer mb |
| 20260504110606 | 6 | 96 | 0.0 | 0.0 | 0.00 | 0.00 | 0.00 | 84 | 1014.9 |
| 20260504100528 | 2 | 95 | 0.0 | 3.2 | 0.00 | 0.00 | 0.00 | 92 | 1014.7 |
| 20260504081921 | 5 | 95 | 1.6 | 3.2 | 0.00 | 0.00 | 0.00 | 86 | 1014.6 |
| 20260504081418 | 5 | 95 | 3.2 | 3.2 | 0.00 | 0.00 | 0.00 | 85 | 1014.7 |
| 20260504080914 | 5 | 95 | 0.0 | 0.0 | 0.00 | 0.00 | 0.00 | 84 | 1014.5 |
| 20260504080411 | 5 | 95 | 0.0 | 0.0 | 0.00 | 0.00 | 0.00 | 86 | 1014.6 |
| 20260504070338 | 6 | 117 | 0.0 | 3.2 | 0.00 | 0.00 | 0.00 | 74 | 1014.4 |
| 20260504050715 | 4 | 60 | 0.0 | 0.0 | 0.00 | 0.00 | 0.00 | 89 | 1014.8 |
| 20260504050212 | 4 | 60 | 3.2 | 3.2 | 0.00 | 0.00 | 0.00 | 90 | 1014.6 |
| 20260504045709 | 5 | 60 | 0.0 | 0.0 | 0.00 | 0.00 | 0.00 | 89 | 1014.9 |
| 20260504045204 | 5 | 60 | 0.0 | 0.0 | 0.00 | 0.00 | 0.00 | 86 | 1015.0 |
| 20260504044702 | 4 | 60 | 0.0 | 0.0 | 0.00 | 0.00 | 0.00 | 84 | 1014.8 |
| 20260504044159 | 4 | 60 | 0.0 | 0.0 | 0.00 | 0.00 | 0.00 | 83 | 1014.7 |
| 20260504043656 | 4 | 60 | 0.0 | 0.0 | 0.00 | 0.00 | 0.00 | 84 | 1014.7 |
| 20260504043153 | 3 | 60 | 0.0 | 3.2 | 0.00 | 0.00 | 0.00 | 88 | 1014.6 |
| 20260504042650 | 3 | 60 | 1.6 | 3.2 | 0.00 | 0.00 | 0.00 | 90 | 1014.6 |
| 20260504042147 | 3 | 60 | 0.0 | 0.0 | 0.00 | 0.00 | 0.00 | 90 | 1014.7 |
| 20260504041642 | 3 | 60 | 0.0 | 3.2 | 0.00 | 0.00 | 0.00 | 90 | 1014.7 |
| 20260504041138 | 3 | 60 | 3.2 | 3.2 | 0.00 | 0.00 | 0.00 | 90 | 1014.5 |
| 20260504040636 | 3 | 60 | 3.2 | 3.2 | 0.00 | 0.00 | 0.00 | 90 | 1014.6 |
| 20260504040133 | 3 | 60 | 0.0 | 3.2 | 0.00 | 0.00 | 0.00 | 89 | 1014.6 |
| 20260504035629 | 3 | 59 | 3.2 | 3.2 | 0.00 | 0.00 | 0.00 | 88 | 1014.5 |
| 20260504035126 | 3 | 60 | 0.0 | 0.0 | 0.00 | 0.00 | 0.00 | 89 | 1014.8 |
| 20260504034624 | 3 | 60 | 1.6 | 3.2 | 0.00 | 0.00 | 0.00 | 87 | 1014.6 |
| 20260504034121 | 3 | 60 | 0.0 | 0.0 | 0.00 | 0.00 | 0.00 | 86 | 1014.6 |
| 20260504033618 | 3 | 60 | 3.2 | 3.2 | 0.00 | 0.00 | 0.00 | 86 | 1014.4 |
| 20260504033116 | 3 | 60 | 1.6 | 3.2 | 0.00 | 0.00 | 0.00 | 87 | 1014.4 |
| 20260504032612 | 3 | 60 | 3.2 | 3.2 | 0.00 | 0.00 | 0.00 | 87 | 1014.5 |
| 20260504032109 | 3 | 60 | 0.0 | 0.0 | 0.00 | 0.00 | 0.00 | 84 | 1014.3 |
| 20260504031607 | 4 | 60 | 0.0 | 0.0 | 0.00 | 0.00 | 0.00 | 84 | 1014.4 |
| 20260504031103 | 4 | 64 | 0.0 | 0.0 | 0.00 | 0.00 | 0.00 | 83 | 1014.4 |
| 20260504030600 | 3 | 64 | 0.0 | 0.0 | 0.00 | 0.00 | 0.00 | 81 | 1014.5 |
| 20260504030056 | 3 | 64 | 0.0 | 3.2 | 0.00 | 0.00 | 0.00 | 83 | 1014.3 |
| 20260504025553 | 3 | 64 | 0.0 | 0.0 | 0.00 | 0.00 | 0.00 | 82 | 1014.3 |
| 20260504025050 | 3 | 63 | 4.8 | 4.8 | 0.00 | 0.00 | 0.00 | 84 | 1014.2 |
| 20260504024547 | 4 | 64 | 0.0 | 0.0 | 0.00 | 0.00 | 0.00 | 82 | 1014.4 |
| 20260504024044 | 4 | 64 | 0.0 | 3.2 | 0.00 | 0.00 | 0.00 | 79 | 1014.3 |
| 20260504023540 | 5 | 64 | 0.0 | 0.0 | 0.00 | 0.00 | 0.00 | 78 | 1014.4 |
| 20260504023036 | 5 | 64 | 0.0 | 3.2 | 0.00 | 0.00 | 0.00 | 74 | 1014.4 |
| 20260504022532 | 5 | 63 | 1.6 | 3.2 | 0.00 | 0.00 | 0.00 | 72 | 1014.2 |
| 20260504022029 | 6 | 78 | 0.0 | 3.2 | 0.00 | 0.00 | 0.00 | 66 | 1014.2 |
| 20260504021526 | 8 | 60 | 1.6 | 8.0 | 0.00 | 0.00 | 0.00 | 66 | 1014.2 |
| 20260504021023 | 9 | 136 | 4.8 | 4.8 | 0.00 | 0.00 | 0.00 | 51 | 1014.0 |
| 20260504020520 | 9 | 119 | 1.6 | 3.2 | 0.00 | 0.00 | 0.00 | 52 | 1013.9 |
| 20260504020017 | 10 | 139 | 3.2 | 4.8 | 0.00 | 0.00 | 0.00 | 49 | 1014.0 |
| 20260504015513 | 10 | 120 | 1.6 | 3.2 | 0.00 | 0.00 | 0.00 | 49 | 1014.1 |
| 20260504015009 | 9 | 172 | 4.8 | 4.8 | 0.00 | 0.00 | 0.00 | 48 | 1014.1 |
| 20260504014505 | 8 | 160 | 6.4 | 8.0 | 0.00 | 0.00 | 0.00 | 51 | 1013.9 |
| 20260504014003 | 8 | 91 | 0.0 | 4.8 | 0.00 | 0.00 | 0.00 | 53 | 1013.9 |
| 20260504013501 | 8 | 97 | 0.0 | 3.2 | 0.00 | 0.00 | 0.00 | 51 | 1013.7 |
| 20260504012956 | 8 | 192 | 1.6 | 4.8 | 0.00 | 0.00 | 0.00 | 50 | 1013.6 |
| 20260504012455 | 8 | 114 | 1.6 | 4.8 | 0.00 | 0.00 | 0.00 | 53 | 1013.8 |
| 20260504011952 | 8 | 120 | 0.0 | 3.2 | 0.00 | 0.00 | 0.00 | 52 | 1013.6 |
| 20260504011448 | 7 | 114 | 0.0 | 0.0 | 0.00 | 0.00 | 0.00 | 51 | 1013.6 |
| 20260504010944 | 7 | 124 | 3.2 | 8.0 | 0.00 | 0.00 | 0.00 | 56 | 1013.5 |
| 20260504010440 | 7 | 121 | 3.2 | 3.2 | 0.00 | 0.00 | 0.00 | 57 | 1013.6 |
| 20260504005936 | 8 | 120 | 0.0 | 0.0 | 0.00 | 0.00 | 0.00 | 60 | 1013.5 |
| 20260504005434 | 8 | 152 | 3.2 | 4.8 | 0.00 | 0.00 | 0.00 | 54 | 1013.1 |
| 20260504004931 | 8 | 105 | 0.0 | 8.0 | 0.00 | 0.00 | 0.00 | 54 | 1013.4 |
| 20260504004429 | 8 | 97 | 0.0 | 0.0 | 0.00 | 0.00 | 0.00 | 55 | 1013.0 |
| 20260504003925 | 8 | 95 | 0.0 | 3.2 | 0.00 | 0.00 | 0.00 | 52 | 1012.8 |
| 20260504003422 | 8 | 120 | 0.0 | 0.0 | 0.00 | 0.00 | 0.00 | 49 | 1013.0 |
| 20260504002918 | 9 | 120 | 0.0 | 3.2 | 0.00 | 0.00 | 0.00 | 47 | 1013.0 |
| 20260504002415 | 9 | 120 | 0.0 | 3.2 | 0.00 | 0.00 | 0.00 | 47 | 1012.8 |
| 20260504001913 | 9 | 120 | 1.6 | 3.2 | 0.00 | 0.00 | 0.00 | 49 | 1012.8 |
| 20260504001410 | 9 | 110 | 0.0 | 3.2 | 0.00 | 0.00 | 0.00 | 49 | 1012.8 |
| 20260504000906 | 9 | 109 | 0.0 | 0.0 | 0.00 | 0.00 | 0.00 | 50 | 1012.6 |
| 20260504000404 | 9 | 111 | 0.0 | 0.0 | 0.00 | 0.00 | 0.00 | 54 | 1012.5 |
| 20260503235901 | 9 | 125 | 0.0 | 0.0 | 0.00 | 0.00 | 0.00 | 54 | 1012.5 |
| 20260503235359 | 10 | 126 | 0.0 | 3.2 | 0.00 | 0.00 | 0.00 | 53 | 1012.3 |
| 20260503234856 | 10 | 125 | 0.0 | 3.2 | 0.00 | 0.00 | 0.00 | 54 | 1012.5 |
| 20260503234354 | 10 | 126 | 0.0 | 3.2 | 0.00 | 0.00 | 0.00 | 54 | 1012.3 |
| 20260503233851 | 10 | 71 | 0.0 | 0.0 | 0.00 | 0.00 | 0.00 | 50 | 1012.5 |
| 20260503233347 | 10 | 71 | 0.0 | 0.0 | 0.00 | 0.00 | 0.00 | 50 | 1012.5 |
| 20260503232844 | 10 | 71 | 3.2 | 4.8 | 0.00 | 0.00 | 0.00 | 50 | 1012.3 |
| 20260503232341 | 11 | 64 | 3.2 | 4.8 | 0.00 | 0.00 | 0.00 | 53 | 1012.3 |
| 20260503231839 | 11 | 33 | 4.8 | 8.0 | 0.00 | 0.00 | 0.00 | 50 | 1012.3 |
| 20260503231335 | 11 | 81 | 0.0 | 0.0 | 0.00 | 0.00 | 0.00 | 48 | 1012.5 |
| 20260503230826 | 11 | 353 | 8.0 | 8.0 | 0.00 | 0.00 | 0.00 | 48 | 1012.2 |
| 20260503230323 | 11 | 8 | 14.5 | 16.1 | 0.00 | 0.00 | 0.00 | 48 | 1012.3 |
| 20260503225821 | 11 | 17 | 4.8 | 8.0 | 0.00 | 0.00 | 0.00 | 51 | 1012.3 |
| 20260503225316 | 11 | 356 | 8.0 | 16.1 | 0.00 | 0.00 | 0.00 | 47 | 1012.5 |
| 20260503224813 | 11 | 344 | 17.7 | 22.5 | 0.00 | 0.00 | 0.00 | 45 | 1012.5 |
| 20260503224310 | 12 | 336 | 12.9 | 19.3 | 0.00 | 0.00 | 0.00 | 46 | 1012.2 |
| 20260503223808 | 12 | 354 | 16.1 | 22.5 | 0.00 | 0.00 | 0.00 | 45 | 1012.2 |
| 20260503223305 | 12 | 77 | 4.8 | 19.3 | 0.00 | 0.00 | 0.00 | 48 | 1012.1 |
| 20260503222801 | 12 | 353 | 19.3 | 22.5 | 0.00 | 0.00 | 0.00 | 45 | 1012.6 |
| 20260503222300 | 12 | 315 | 17.7 | 22.5 | 0.00 | 0.00 | 0.00 | 45 | 1012.1 |
| 20260503221757 | 12 | 333 | 14.5 | 24.1 | 0.00 | 0.00 | 0.00 | 48 | 1012.2 |
| 20260503221255 | 12 | 326 | 12.9 | 16.1 | 0.00 | 0.00 | 0.00 | 47 | 1012.2 |
| 20260503220751 | 11 | 343 | 9.7 | 24.1 | 0.00 | 0.00 | 0.00 | 47 | 1012.1 |
| 20260503220248 | 11 | 113 | 1.6 | 22.5 | 0.00 | 0.00 | 0.00 | 46 | 1012.3 |
| 20260503215745 | 12 | 187 | 6.4 | 33.8 | 0.00 | 0.00 | 0.00 | 46 | 1012.3 |
| 20260503215242 | 11 | 106 | 0.0 | 8.0 | 0.00 | 0.00 | 0.00 | 49 | 1012.2 |
| 20260503214740 | 11 | 171 | 1.6 | 4.8 | 0.00 | 0.00 | 0.00 | 47 | 1012.6 |
| 20260503214237 | 11 | 52 | 3.2 | 4.8 | 0.00 | 0.00 | 0.00 | 48 | 1012.5 |
| 20260503213735 | 11 | 105 | 1.6 | 14.5 | 0.00 | 0.00 | 0.00 | 47 | 1012.0 |
| 20260503213232 | 11 | 55 | 3.2 | 19.3 | 0.00 | 0.00 | 0.00 | 48 | 1012.2 |
| 20260503212729 | 12 | 166 | 4.8 | 49.9 | 0.00 | 0.00 | 0.00 | 43 | 1012.2 |
| 20260503212226 | 12 | 310 | 4.8 | 38.6 | 0.00 | 0.00 | 0.00 | 46 | 1012.5 |
| 20260503211724 | 12 | 343 | 32.2 | 49.9 | 0.00 | 0.00 | 0.00 | 46 | 1012.2 |
| 20260503211220 | 12 | 348 | 27.4 | 35.4 | 0.00 | 0.00 | 0.00 | 44 | 1012.2 |
| 20260503210715 | 11 | 345 | 8.0 | 24.1 | 0.00 | 0.00 | 0.00 | 49 | 1012.1 |
| 20260503210213 | 11 | 326 | 6.4 | 27.4 | 0.00 | 0.00 | 0.00 | 47 | 1012.1 |
| 20260503205708 | 11 | 323 | 20.9 | 27.4 | 0.00 | 0.00 | 0.00 | 47 | 1011.9 |
| 20260503205205 | 11 | 329 | 19.3 | 38.6 | 0.00 | 0.00 | 0.00 | 44 | 1011.8 |
| 20260503204701 | 11 | 326 | 16.1 | 38.6 | 0.00 | 0.00 | 0.00 | 46 | 1012.0 |
| 20260503204159 | 11 | 308 | 12.9 | 35.4 | 0.00 | 0.00 | 0.00 | 49 | 1012.1 |
| 20260503203656 | 11 | 301 | 30.6 | 38.6 | 0.00 | 0.00 | 0.00 | 46 | 1011.9 |
| 20260503203154 | 11 | 335 | 16.1 | 35.4 | 0.00 | 0.00 | 0.00 | 49 | 1012.0 |
| 20260503202650 | 11 | 351 | 20.9 | 30.6 | 0.00 | 0.00 | 0.00 | 45 | 1011.9 |
| 20260503202148 | 11 | 341 | 20.9 | 30.6 | 0.00 | 0.00 | 0.00 | 46 | 1012.0 |
| 20260503201646 | 11 | 316 | 20.9 | 46.7 | 0.00 | 0.00 | 0.00 | 46 | 1011.8 |
| 20260503201143 | 11 | 353 | 33.8 | 43.5 | 0.00 | 0.00 | 0.00 | 45 | 1011.8 |
| 20260503200639 | 11 | 316 | 6.4 | 30.6 | 0.00 | 0.00 | 0.00 | 48 | 1012.1 |
| 20260503200136 | 11 | 322 | 37.0 | 46.7 | 0.00 | 0.00 | 0.00 | 45 | 1011.9 |
| 20260503195633 | 11 | 335 | 37.0 | 46.7 | 0.00 | 0.00 | 0.00 | 44 | 1012.0 |
| 20260503195130 | 11 | 325 | 25.7 | 46.7 | 0.00 | 0.00 | 0.00 | 44 | 1011.9 |
| 20260503194627 | 11 | 7 | 27.4 | 41.8 | 0.00 | 0.00 | 0.00 | 47 | 1011.9 |
| 20260503194122 | 11 | 326 | 20.9 | 24.1 | 0.00 | 0.00 | 0.00 | 50 | 1011.9 |
| 20260503193620 | 11 | 345 | 25.7 | 35.4 | 0.00 | 0.00 | 0.00 | 47 | 1011.8 |
| 20260503193114 | 11 | 359 | 32.2 | 43.5 | 0.00 | 0.00 | 0.00 | 45 | 1011.8 |
| 20260503192611 | 11 | 336 | 33.8 | 43.5 | 0.00 | 0.00 | 0.00 | 46 | 1011.9 |
| 20260503192106 | 11 | 300 | 30.6 | 43.5 | 0.00 | 0.00 | 0.00 | 48 | 1012.0 |
| 20260503191604 | 11 | 334 | 30.6 | 49.9 | 0.00 | 0.00 | 0.00 | 47 | 1011.9 |
| 20260503191100 | 11 | 354 | 35.4 | 49.9 | 0.00 | 0.00 | 0.00 | 44 | 1011.8 |
| 20260503190557 | 11 | 329 | 19.3 | 27.4 | 0.00 | 0.00 | 0.00 | 48 | 1011.9 |
| 20260503190054 | 11 | 298 | 9.7 | 38.6 | 0.00 | 0.00 | 0.00 | 46 | 1011.8 |
| 20260503185551 | 11 | 281 | 19.3 | 38.6 | 0.00 | 0.00 | 0.00 | 49 | 1011.7 |
| 20260503185050 | 11 | 312 | 16.1 | 24.1 | 0.00 | 0.00 | 0.00 | 48 | 1011.9 |
| 20260503184546 | 11 | 29 | 32.2 | 35.4 | 0.00 | 0.00 | 0.00 | 46 | 1011.9 |
| 20260503184043 | 11 | 274 | 6.4 | 38.6 | 0.00 | 0.00 | 0.00 | 47 | 1012.0 |
| 20260503183540 | 11 | 318 | 4.8 | 30.6 | 0.00 | 0.00 | 0.00 | 48 | 1011.9 |
| 20260503183037 | 11 | 55 | 6.4 | 38.6 | 0.00 | 0.00 | 0.00 | 48 | 1011.7 |
| 20260503182536 | 11 | 339 | 19.3 | 33.8 | 0.00 | 0.00 | 0.00 | 51 | 1012.1 |
| 20260503182033 | 11 | 44 | 3.2 | 4.8 | 0.00 | 0.00 | 0.00 | 51 | 1011.9 |
| 20260503181530 | 12 | 317 | 20.9 | 33.8 | 0.00 | 0.00 | 0.00 | 51 | 1012.0 |
| 20260503181026 | 12 | 290 | 16.1 | 24.1 | 0.00 | 0.00 | 0.00 | 49 | 1011.9 |
| 20260503180524 | 12 | 13 | 8.0 | 19.3 | 0.00 | 0.00 | 0.00 | 50 | 1011.9 |
| 20260503180021 | 11 | 161 | 4.8 | 14.5 | 0.00 | 0.00 | 0.00 | 48 | 1012.0 |
| 20260503175518 | 11 | 324 | 24.1 | 43.5 | 0.00 | 0.00 | 0.00 | 50 | 1012.0 |
| 20260503175015 | 11 | 327 | 24.1 | 49.9 | 0.00 | 0.00 | 0.00 | 49 | 1012.1 |
| 20260503174513 | 11 | 350 | 27.4 | 41.8 | 0.00 | 0.00 | 0.00 | 51 | 1012.0 |
| 20260503174008 | 11 | 47 | 11.3 | 22.5 | 0.00 | 0.00 | 0.00 | 47 | 1011.7 |
| 20260503173504 | 11 | 218 | 6.4 | 19.3 | 0.00 | 0.00 | 0.00 | 50 | 1011.9 |
| 20260503173000 | 11 | 299 | 19.3 | 46.7 | 0.00 | 0.00 | 0.00 | 51 | 1011.6 |
| 20260503172458 | 11 | 328 | 27.4 | 38.6 | 0.00 | 0.00 | 0.00 | 49 | 1011.6 |
| 20260503171955 | 11 | 143 | 6.4 | 19.3 | 0.00 | 0.00 | 0.00 | 48 | 1011.7 |
| 20260503171451 | 11 | 331 | 30.6 | 46.7 | 0.00 | 0.00 | 0.00 | 49 | 1011.6 |
| 20260503170949 | 11 | 67 | 4.8 | 11.3 | 0.00 | 0.00 | 0.00 | 49 | 1011.2 |
| 20260503170445 | 11 | 339 | 22.5 | 35.4 | 0.00 | 0.00 | 0.00 | 52 | 1011.5 |
| 20260503150837 | 10 | 337 | 20.9 | 35.4 | 0.00 | 0.00 | 0.00 | 57 | 1011.8 |
| 20260503150333 | 10 | 328 | 20.9 | 41.8 | 0.00 | 0.00 | 0.00 | 56 | 1011.8 |
| 20260503140257 | 10 | 340 | 22.5 | 33.8 | 0.00 | 0.00 | 0.00 | 63 | 1012.2 |
| 20260503131227 | 8 | 52 | 11.3 | 19.3 | 0.00 | 0.00 | 0.00 | 73 | 1012.5 |
| 20260503130725 | 8 | 320 | 16.1 | 30.6 | 0.00 | 0.00 | 0.00 | 72 | 1012.6 |
| 20260503130222 | 8 | 247 | 8.0 | 22.5 | 0.00 | 0.00 | 0.00 | 71 | 1012.6 |
| 20260503120148 | 6 | 317 | 11.3 | 14.5 | 0.00 | 0.00 | 0.00 | 78 | 1012.7 |